CAPE
0 0 0 0 0 0 1 11 5 28 187 187 64 23 19 18 10 2 0 0 0 5 0 0 0 0 0 0 0 0 0 0 0 0 0 0 1 0 0 0 0 0 0 0 0
0 0 0 0 0 0 0 0 2 13 29 85 24 0 1 0 0 0 0 0 8 39 0 0 0 0 0 0 0 0 0 0 0 0 0 0 0 0 0 0 0 0 0 0 0
0 0 0 0 0 0 1 10 0 0 20 19 38 2 16 0 0 0 0 0 4 36 12 0 0 0 0 0 0 0 0 0 0 0 0 0 0 0 0 0 0 0 0 0 0
0 0 0 0 0 1 0 25 3 0 0 55 47 29 26 0 0 0 0 13 14 0 0 0 0 0 0 0 0 0 0 0 0 0 0 0 0 0 0 0 0 0 0 0 0
0 0 0 0 0 0 0 28 36 58 11 41 53 24 18 0 0 0 3 215 26 4 0 0 0 0 0 0 0 0 0 0 0 0 0 0 0 0 0 0 0 0 0 0 0
0 0 0 0 0 0 3 0 8 9 38 17 11 7 0 0 0 0 54 86 29 6 0 0 0 0 0 0 0 0 0 0 0 0 0 0 0 0 0 0 0 0 0 0 0
0 0 0 0 0 0 0 0 0 2 0 9 2 0 0 0 0 0 0 22 13 1 0 0 0 0 0 0 0 0 0 0 0 0 0 0 0 0 0 0 0 0 0 0 0
1 0 0 0 0 0 0 0 0 0 0 0 0 0 0 0 0 0 0 0 0 0 0 0 0 0 0 0 0 0 0 0 0 0 0 0 0 0 0 0 0 0 0 0 0
0 0 0 0 0 0 0 0 0 7 6 2 0 0 0 0 0 0 0 0 0 0 0 0 0 0 0 0 0 0 0 0 0 0 0 0 0 0 0 0 0 0 0 0 0
0 0 0 0 0 0 0 0 0 0 5 1 0 0 0 0 0 0 0 0 0 0 0 0 0 0 0 0 0 0 0 0 0 0 0 0 0 0 0 0 0 0 0 0 0
0 0 0 0 0 0 0 0 0 0 0 0 0 0 0 0 0 0 0 0 0 0 0 0 0 0 0 0 0 0 0 0 0 0 0 0 0 0 0 0 0 0 0 0 0
0 0 0 0 0 0 0 0 0 0 0 0 0 0 0 0 0 0 0 0 0 0 0 0 0 0 0 0 0 0 0 0 0 0 0 0 0 0 0 0 0 0 0 0 0
0 0 0 0 0 0 0 0 0 0 0 0 0 0 0 0 0 0 0 0 0 0 0 0 0 0 0 0 0 0 0 0 0 0 0 0 0 0 0 0 0 0 0 0 0
0 0 0 0 0 0 0 0 0 0 0 0 0 0 0 0 0 0 0 0 0 0 0 0 0 0 0 0 0 0 0 0 0 0 0 0 0 0 0 0 0 0 0 0 0
0 0 0 0 0 0 0 0 0 0 0 0 0 0 0 0 0 0 0 0 0 0 0 0 0 0 0 0 0 0 0 0 0 0 0 0 0 0 0 0 0 0 0 0 0
0 0 0 0 0 0 0 0 0 0 0 0 0 0 0 0 0 0 0 0 0 0 0 0 0 0 0 0 0 0 0 0 0 0 0 0 0 0 0 0 0 0 0 0 0
0 0 0 0 0 0 0 0 0 0 0 0 0 0 0 0 0 0 0 0 0 0 0 0 0 0 0 0 0 0 0 0 0 0 0 0 0 0 0 0 0 0 0 0 0
0 0 0 0 0 0 0 0 0 0 0 0 0 0 0 0 0 0 0 0 0 0 0 0 0 0 0 0 0 0 0 0 0 0 0 0 0 0 0 0 0 0 0 0 0
0 0 0 0 0 0 0 0 0 0 0 0 0 0 0 0 0 0 0 0 0 0 0 0 0 0 0 0 0 0 0 0 0 0 0 0 0 0 0 0 0 0 0 0 0
0 0 0 0 0 0 0 0 0 0 0 0 0 0 0 0 0 0 0 0 0 0 0 0 0 0 0 0 0 0 0 0 0 0 0 0 0 0 0 0 0 0 0 0 0
0 0 0 0 0 0 0 0 0 0 0 0 0 0 0 0 0 0 0 0 0 0 0 0 0 0 0 0 0 0 0 0 0 0 0 0 0 0 0 0 0 0 0 0 0
0 0 0 0 0 0 0 0 0 0 0 0 0 0 0 0 0 0 0 0 0 0 0 0 0 0 0 0 0 0 0 0 0 0 0 0 0 0 0 0 0 0 0 0 0
0 0 0 0 0 0 0 0 0 0 0 0 0 0 0 0 0 0 0 0 0 0 0 0 0 0 0 0 0 0 0 0 0 0 0 0 0 0 0 0 0 0 0 0 0
0 0 0 0 0 0 0 0 0 0 0 0 0 0 0 0 0 0 0 0 0 0 0 0 0 0 0 0 0 0 0 0 0 0 0 0 0 0 0 0 0 0 0 0 0
0 0 0 0 0 0 0 0 0 0 0 0 0 0 0 0 0 0 0 0 0 0 0 0 0 0 0 0 0 0 0 0 0 0 0 0 0 0 0 0 0 0 0 0 0
0 0 0 0 0 0 0 0 0 0 0 0 0 0 0 0 0 0 0 0 0 0 0 0 0 0 0 0 0 0 0 0 0 0 0 0 0 0 0 0 0 0 0 0 0
0 0 0 0 0 0 0 0 0 0 0 0 0 0 0 0 0 0 0 0 0 0 0 0 0 0 0 0 0 0 0 0 0 0 0 0 0 0 0 0 0 0 0 0 0
CIN
0 0 0 0 0 0 -1 -1 -20 -2 -1 -3 -11 -18 -14 -4 -4 0 0 0 0 -6 0 0 0 0 0 0 0 0 0 0 0 0 0 0 -74 0 0 0 0 0 0 0 0
0 0 0 0 0 0 0 0 -5 -19 -18 -4 -23 0 -1 0 0 0 0 0 -9 -7 0 0 0 0 0 0 0 0 0 0 0 0 0 0 0 0 0 0 0 0 0 0 0
0 0 0 0 0 0 0 -1 0 -1 -8 -10 -31 -5 -6 0 0 0 0 0 -14 -7 -17 0 0 0 0 0 0 0 0 0 0 0 0 0 0 0 0 0 0 0 0 0 0
0 0 0 0 0 0 0 -5 -14 -1 0 -8 -7 -28 -10 0 0 0 0 -40 -29 0 0 0 0 0 0 0 0 0 0 0 0 0 0 0 0 0 0 0 0 0 0 0 0
0 0 0 0 0 0 0 -14 -8 -5 -18 -5 -5 -9 -6 0 0 0 -20 -21 -21 -28 0 0 0 0 0 0 0 0 0 0 0 0 0 0 0 0 0 0 0 0 0 0 0
0 0 0 0 0 0 -10 0 -42 -28 -6 -9 -6 -7 0 0 0 0 -77 -43 -67 -50 0 0 0 0 0 0 0 0 0 0 0 0 0 0 0 0 0 0 0 0 0 0 0
0 0 0 0 0 0 -3 0 0 -49 -11 -25 -16 0 0 0 0 0 0 -58 -70 -16 0 0 0 0 0 0 0 0 0 0 0 0 0 0 0 0 0 0 0 0 0 0 0
0 0 0 0 0 0 0 0 0 0 0 0 0 0 0 0 0 0 0 0 0 0 0 0 0 0 0 0 0 0 0 0 0 0 0 0 0 0 0 0 0 0 0 0 0
0 0 0 0 0 0 0 0 0 -54 -22 -44 0 0 0 0 0 0 0 0 0 0 0 0 0 0 0 0 0 0 0 0 0 0 0 0 0 0 0 0 0 0 0 0 0
0 0 0 0 0 0 0 0 0 -12 -10 -24 0 0 0 0 0 0 0 0 0 0 0 0 0 0 0 0 0 0 0 0 0 0 0 0 0 0 0 0 0 0 0 0 0
0 0 0 0 0 0 0 0 0 0 0 0 0 0 0 0 0 0 0 0 0 0 0 0 0 0 0 0 0 0 0 0 0 0 0 0 0 0 0 0 0 0 0 0 0
0 0 0 0 0 0 0 0 0 0 0 0 0 0 0 0 0 0 0 0 0 0 0 0 0 0 0 0 0 0 0 0 0 0 0 0 0 0 0 0 0 0 0 0 0
0 0 0 0 0 0 0 0 0 0 0 0 0 0 0 0 0 0 0 0 0 0 0 0 0 0 0 0 0 0 0 0 0 0 0 0 0 0 0 0 0 0 0 0 0
0 0 0 0 0 0 0 0 0 0 0 0 0 0 0 0 0 0 0 0 0 0 0 0 0 0 0 0 0 0 0 0 0 0 0 0 0 0 0 0 0 0 0 0 0
0 0 0 0 0 0 0 0 0 0 0 0 0 0 0 0 0 0 0 0 0 0 0 0 0 0 0 0 0 0 0 0 0 0 0 0 0 0 0 0 0 0 0 0 0
0 0 0 0 0 0 0 0 0 0 0 0 0 0 0 0 0 0 0 0 0 0 0 0 0 0 0 0 0 0 0 0 0 0 0 0 0 0 0 0 0 0 0 0 0
0 0 0 0 0 0 0 0 0 0 0 0 0 0 0 0 0 0 0 0 0 0 0 0 0 0 0 0 0 0 0 0 0 0 0 0 0 0 0 0 0 0 0 0 0
0 0 0 0 0 0 0 0 0 0 0 0 0 0 0 0 0 0 0 0 0 0 0 0 0 0 0 0 0 0 0 0 0 0 0 0 0 0 0 0 0 0 0 0 0
0 0 0 0 0 0 0 0 0 0 0 0 0 0 0 0 0 0 0 0 0 0 0 0 0 0 0 0 0 0 0 0 0 0 0 0 0 0 0 0 0 0 0 0 0
0 0 0 0 0 0 0 0 0 0 0 0 0 0 0 0 0 0 0 0 0 0 0 0 0 0 0 0 0 0 0 0 0 0 0 0 0 0 0 0 0 0 0 0 0
0 0 0 0 0 0 0 0 0 0 0 0 0 0 0 0 0 0 0 0 0 0 0 0 0 0 0 0 0 0 0 0 0 0 0 0 0 0 0 0 0 0 0 0 0
0 0 0 0 0 0 0 0 0 0 0 0 0 0 0 0 0 0 0 0 0 0 0 0 0 0 0 0 0 0 0 0 0 0 0 0 0 0 0 0 0 0 0 0 0
0 0 0 0 0 0 0 0 0 0 0 0 0 0 0 0 0 0 0 0 0 0 0 0 0 0 0 0 0 0 0 0 0 0 0 0 0 0 0 0 0 0 0 0 0
0 0 0 0 0 0 0 0 0 0 0 0 0 0 0 0 0 0 0 0 0 0 0 0 0 0 0 0 0 0 0 0 0 0 0 0 0 0 0 0 0 0 0 0 0
0 0 0 0 0 0 0 0 0 0 0 0 0 0 0 0 0 0 0 0 0 0 0 0 0 0 0 0 0 0 0 0 0 0 0 0 0 0 0 0 0 0 0 0 0
0 0 0 0 0 0 0 0 0 0 0 0 0 0 0 0 0 0 0 0 0 0 0 0 0 0 0 0 0 0 0 0 0 0 0 0 0 0 0 0 0 0 0 0 0
0 0 0 0 0 0 0 0 0 0 0 0 0 0 0 0 0 0 0 0 0 0 0 0 0 0 0 0 0 0 0 0 0 0 0 0 0 0 0 0 0 0 0 0 0
Wind_Speed
31 31 30 29 28 28 24 19 15 16 16 14 16 18 17 16 16 21 28 24 24 25 23 25 26 27 27 27 26 25 31 31 26 22 21 15 16 15 14 12 14 14 12 11 9
30 30 30 31 32 31 27 22 17 15 16 17 17 17 15 13 18 25 23 23 24 24 25 27 29 27 30 29 28 30 38 34 26 23 21 18 17 12 14 13 14 13 12 7 8
25 26 29 30 34 35 28 23 18 16 17 18 17 17 13 13 21 24 21 25 23 22 24 24 26 28 32 30 30 31 37 31 27 26 21 19 19 14 12 15 13 10 6 3 5
21 22 26 30 34 37 30 25 19 17 16 16 17 15 12 18 24 19 20 20 20 18 21 24 27 32 33 35 31 33 31 28 24 23 21 20 16 17 15 15 16 15 5 2 3
17 18 20 25 31 35 31 28 23 19 16 14 12 9 13 20 21 19 21 16 12 17 22 25 29 31 35 34 31 33 30 26 24 21 23 21 20 20 16 17 17 13 5 1 1
14 15 17 20 26 32 31 29 25 21 17 13 12 10 15 19 18 18 16 8 11 16 20 23 27 27 31 33 34 31 27 27 24 22 20 22 22 21 17 11 11 8 6 3 2
13 13 15 16 21 27 28 29 27 22 17 15 13 12 14 17 15 16 15 12 11 15 21 21 21 27 27 31 28 26 30 27 26 23 21 18 25 22 14 10 11 11 9 6 6
11 11 12 14 15 19 22 24 24 22 17 15 12 13 16 16 16 15 13 12 13 14 18 20 21 25 26 25 27 29 29 33 29 25 22 20 28 18 18 15 13 11 9 8 7
10 10 10 12 13 16 16 17 19 20 17 15 11 12 15 15 15 16 14 13 12 14 18 19 19 25 25 31 32 32 36 34 29 25 24 23 24 20 19 17 15 12 8 8 10
9 9 9 10 11 14 15 16 18 20 22 9 14 10 12 11 13 12 14 10 14 12 17 20 23 28 29 34 43 39 33 32 31 28 27 28 29 21 18 19 17 13 11 11 10
9 10 10 10 11 12 15 17 22 20 17 15 16 18 14 13 12 13 12 12 11 13 20 21 30 35 34 31 29 30 31 31 28 24 28 33 36 35 27 23 19 14 13 10 10
9 9 10 11 12 14 14 18 21 20 23 18 16 14 16 15 11 13 12 13 12 17 19 22 33 26 24 26 26 28 30 30 26 26 26 28 37 35 31 28 22 16 11 10 12
12 11 10 12 15 15 15 15 15 15 22 19 16 16 16 17 13 13 13 13 13 17 22 24 26 22 23 24 26 27 29 27 26 24 25 30 36 30 25 25 24 22 19 16 11
15 14 14 16 16 14 13 13 13 15 22 20 15 15 16 16 12 14 16 15 14 19 19 19 21 22 23 24 24 28 23 24 24 24 29 24 33 27 25 26 24 22 21 18 14
16 17 17 15 17 16 13 14 15 17 24 12 17 15 17 17 21 14 14 15 18 19 20 19 21 22 24 24 21 23 20 22 23 24 24 24 27 27 25 25 23 22 21 18 14
17 18 19 17 16 16 16 16 17 22 26 18 14 17 19 18 18 18 15 12 16 17 14 18 17 16 19 17 18 15 16 16 19 23 31 27 26 27 23 22 22 22 20 16 12
19 20 18 17 17 17 18 19 25 29 18 19 18 17 20 21 21 19 18 19 22 19 18 18 19 17 15 18 17 18 20 24 27 29 31 22 25 29 21 19 20 22 19 15 12
19 20 20 18 17 17 17 20 30 24 23 18 18 18 20 19 19 20 22 22 20 18 17 20 23 19 18 18 21 21 21 24 29 28 28 23 28 24 19 21 21 22 16 13 12
19 20 20 18 17 17 18 25 25 22 19 20 17 20 18 18 18 19 21 23 22 21 17 18 18 18 17 18 18 21 24 18 18 20 25 23 24 26 22 21 20 19 15 14 13
19 20 22 17 16 18 20 23 21 19 18 18 19 19 20 19 17 18 19 20 21 20 19 16 15 18 17 17 17 19 15 21 21 27 29 25 25 21 18 16 17 17 14 14 14
20 23 19 19 19 21 24 21 17 16 16 16 18 17 17 17 17 18 17 17 20 20 19 15 14 17 17 21 20 18 20 19 18 21 25 27 25 17 17 17 16 17 15 15 16
21 25 20 18 25 22 22 18 15 14 14 14 15 16 17 17 17 17 16 17 17 18 19 18 13 15 19 17 18 19 20 18 22 24 22 23 26 18 20 19 16 15 14 15 15
23 22 20 21 27 25 21 18 16 16 14 14 13 13 14 15 15 16 16 16 17 18 18 18 17 14 15 18 19 19 19 18 17 19 22 23 23 18 19 20 19 16 15 15 16
22 23 22 24 24 24 23 22 20 15 15 13 12 12 12 13 13 14 15 16 17 19 17 17 19 20 17 16 15 17 19 17 18 22 23 23 30 26 24 22 19 17 16 16 17
23 20 21 25 25 24 23 22 22 20 16 16 15 14 11 11 11 12 14 15 16 18 19 20 20 23 25 24 22 22 21 16 15 24 23 30 29 28 25 21 18 16 16 16 17
22 21 21 20 21 23 23 22 21 20 18 17 16 15 13 10 10 12 13 14 15 16 16 18 20 23 25 25 27 32 33 27 22 28 39 37 44 27 27 23 17 15 14 16 17
19 19 20 20 20 22 21 22 22 21 17 16 16 17 17 13 16 16 12 18 20 20 17 18 5 15 25 25 28 34 31 9 22 24 24 28 30 26 25 23 18 15 14 15 16
Wind_Direction
30 26 18 12 0 356 6 7 10 345 319 305 289 281 277 279 280 272 263 265 259 264 266 258 251 245 243 241 243 246 245 247 251 256 263 264 265 279 294 300 302 303 328 346 89
38 36 30 19 360 351 358 5 7 351 315 293 287 282 280 283 276 271 273 267 263 261 258 250 243 240 238 239 240 239 239 244 251 256 262 262 268 276 286 296 300 306 315 4 89
46 46 34 23 5 360 358 357 1 344 312 289 290 284 281 280 273 273 278 262 260 263 257 253 246 239 235 236 237 239 240 244 251 255 264 264 267 279 286 288 301 313 324 32 89
48 46 37 24 15 6 11 4 9 340 322 301 288 285 283 268 262 281 286 274 254 265 252 247 241 234 233 232 235 237 243 245 252 256 260 261 268 274 276 291 298 293 319 355 101
52 52 51 41 31 23 22 19 13 357 331 315 307 300 279 267 265 289 286 274 251 257 249 242 236 234 232 233 233 238 240 248 253 259 259 262 262 267 278 285 295 296 322 5 27
58 57 57 53 44 36 37 23 15 4 346 328 311 298 280 264 283 286 298 271 256 255 250 243 238 240 236 233 232 237 242 245 252 256 263 259 262 266 282 304 313 320 316 314 321
64 65 59 58 52 41 42 37 31 16 348 319 302 295 283 271 289 293 291 269 261 257 248 246 245 238 238 231 235 238 236 242 247 252 259 264 259 265 289 300 298 299 304 305 310
72 72 65 62 60 51 52 49 48 33 348 322 313 297 276 280 278 285 294 272 263 263 255 248 245 242 237 236 231 233 236 235 243 248 257 256 256 270 278 283 291 299 300 302 311
81 81 77 68 65 60 64 68 67 67 60 332 344 315 282 276 273 278 284 268 263 262 252 245 242 237 234 225 224 231 231 233 240 248 253 254 260 271 281 282 285 291 298 302 307
89 87 87 80 78 71 70 71 74 81 83 299 213 197 283 287 281 287 277 267 259 257 244 235 233 230 228 223 221 225 230 234 238 245 251 254 257 270 283 282 284 290 293 297 305
97 90 89 89 85 85 74 82 76 92 116 155 163 126 228 247 264 272 270 260 258 248 233 232 222 223 225 227 232 229 232 235 242 252 251 252 255 257 270 280 289 290 288 294 302
94 98 97 95 92 90 88 86 86 94 88 121 145 174 201 220 268 265 256 256 249 231 230 226 220 230 227 228 229 229 229 237 245 251 255 259 256 262 269 274 282 287 286 288 297
87 89 103 100 93 90 93 97 103 111 101 117 142 162 180 192 244 250 244 247 244 230 223 220 222 230 225 225 226 231 231 236 244 251 259 263 261 268 276 277 280 285 286 288 286
80 81 96 100 93 102 99 109 128 123 95 102 132 151 167 189 223 227 234 239 234 221 219 223 228 225 223 225 232 230 239 240 245 252 253 266 260 270 276 277 282 285 288 289 286
76 77 93 103 94 94 104 110 116 113 83 127 116 143 162 166 168 223 234 231 216 215 218 224 221 221 222 229 238 236 243 243 248 253 259 265 267 272 280 281 287 290 294 295 290
75 75 87 97 97 102 106 110 110 87 82 108 133 136 138 152 165 185 215 234 218 216 226 223 229 234 233 239 242 235 243 250 254 256 256 264 269 273 281 289 293 295 297 302 299
75 74 84 93 89 104 103 101 78 74 103 104 120 140 135 139 142 163 188 197 201 211 219 224 227 237 241 233 240 245 238 243 248 251 256 271 272 272 286 294 299 301 302 305 304
77 78 76 86 97 106 103 86 69 84 92 112 128 135 140 144 143 149 159 178 200 207 219 217 220 232 243 242 241 241 246 248 248 254 262 273 273 282 290 293 297 302 304 307 308
81 71 71 79 91 98 89 72 78 89 101 99 115 116 142 155 150 150 155 165 181 197 225 226 232 239 246 249 249 245 247 262 265 272 270 275 282 285 288 293 299 304 307 308 309
68 64 60 79 90 87 82 77 88 98 101 102 99 109 116 143 160 165 164 172 178 191 207 237 241 243 248 253 260 257 259 259 267 265 267 278 284 288 302 303 302 305 307 309 312
62 50 62 74 77 73 66 78 94 102 100 102 104 112 118 130 151 169 179 190 189 192 206 235 256 248 251 248 251 258 262 270 276 276 276 280 288 302 306 306 305 305 307 309 313
53 39 62 74 47 60 64 78 95 95 104 105 116 115 118 126 132 148 177 210 220 216 210 227 267 262 253 267 269 268 269 272 273 277 285 289 291 303 304 306 310 313 315 319 323
37 43 54 57 30 37 53 66 78 80 93 102 112 126 132 128 128 142 147 180 234 226 230 233 255 276 275 275 275 274 274 279 286 291 286 288 297 307 308 308 310 314 318 323 325
24 24 34 35 39 33 31 36 44 70 80 95 106 120 133 137 148 135 146 158 179 184 258 256 257 263 279 289 291 283 280 278 282 286 289 288 290 299 301 304 309 312 314 318 323
8 15 24 13 20 25 29 26 23 27 47 51 62 74 115 141 145 145 157 161 170 184 194 201 204 244 261 275 284 284 288 290 281 284 291 290 293 301 305 306 309 311 312 316 321
357 1 4 10 17 14 15 17 19 17 15 16 23 30 45 80 150 193 174 173 181 176 171 189 204 228 238 264 272 259 263 285 291 287 274 284 270 302 306 312 311 309 312 315 318
354 357 353 355 360 1 4 3 5 6 13 14 6 360 357 9 350 347 13 327 276 242 193 272 44 325 287 291 283 261 258 267 296 297 298 296 299 307 311 313 314 312 312 314 318